Regional Weather Roundup
Issued by NWS

Home | Current Version | Previous Version | Graphics & Text | Print | Product List | Glossary On
Versions: 1 2 3 4 5 6 7 8 9 10 11 12 13 14 15 16 17 18 19 20 21 22 23 24 25 26 27 28 29 30 31 32 33 34 35 36 37 38 39 40 41 42 43 44 45 46 47 48 49 50
000
ASUS43 KFSD 291910
RWRSD

WEATHER ROUNDUP FOR SOUTH DAKOTA
NATIONAL WEATHER SERVICE SIOUX FALLS SD
200 PM CDT SAT AUG 29 2015

NOTE: "FAIR" INDICATES FEW OR NO CLOUDS BELOW 12,000 FEET WITH NO
SIGNIFICANT WEATHER AND/OR OBSTRUCTIONS TO VISIBILITY.


SDZ001>005-009-010-012>017-292000-
NORTHWEST AND NORTH CENTRAL SOUTH DAKOTA

CITY           SKY/WX    TMP DP  RH WIND       PRES   REMARKS
BUFFALO          N/A     92  51  24 S9        29.91F
MOBRIDGE       SUNNY     87  65  47 SE10      29.91F
$$

SDZ012>016-024>037-041>051-057-063-072>074-292000-
SOUTHWEST AND SOUTH CENTRAL SOUTH DAKOTA

CITY           SKY/WX    TMP DP  RH WIND       PRES   REMARKS
RAPID CTY ARPT SUNNY     92  54  27 S14       30.01F
PIERRE         SUNNY     89  65  44 SE10      29.94F
CUSTER         SUNNY     83  40  21 SW8G16    30.20F
ELLSWORTH AFB  SUNNY     91  55  28 S15       30.00F
PHILIP         SUNNY     92  59  33 SW12      29.96F
PINE RIDGE     SUNNY     93  47  20 SW9       30.06F
WINNER         FAIR      85  64  49 S7        30.01F
$$

SDZ004>011-016>023-039-040-292000-
NORTHEAST SOUTH DAKOTA

CITY           SKY/WX    TMP DP  RH WIND       PRES   REMARKS
ABERDEEN       SUNNY     80  68  66 S12       29.95F
WATERTOWN      MOSUNNY   76  65  68 S13       30.01F
BROOKINGS      PTSUNNY   73  63  68 S10       30.05F
SISSETON         N/A     81  64  56 SW13      29.95F
$$

SDZ017-020-022-023-036>040-048>070-292000-
SOUTHEAST SOUTH DAKOTA

CITY           SKY/WX    TMP DP  RH WIND       PRES   REMARKS
SIOUX FALLS    PTSUNNY   69  61  75 SW7       30.06F
HURON          SUNNY     81  68  64 S14       29.97F
CHAMBERLAIN    SUNNY     81  69  66 S5        29.99F
MITCHELL       MOSUNNY   78  68  71 S13       30.01F
YANKTON        PTSUNNY   70  63  78 E7        30.04F
$$

ABBREVIATIONS USED IN REMARKS
   TC - TEMPERATURE IN CELSIUS
  WCI - WIND CHILL INDEX
   HX - HEAT INDEX
  VSB - VISIBILITY




USA.gov is the U.S. government's official web portal to all federal, state and local government web resources and services.